392P/LINEAR (2020)

Japanese version
Home page
Updated on December 24, 2019

---------------------------------------------------------------------

* Profile

Designation 392P/2019 U3
Recovery Date October 26, 2019
Magnitude 19.2 mag
Recoverer K. Sarneczky (Konkoly Observatory)

* Pictures

* Orbital Elements

Epoch 2020 Mar. 12.0 TT = JDT 2458920.5
T 2020 Mar. 31.84739 TT                                 Williams
q   1.9502340            (2000.0)            P               Q
n   0.06461661     Peri.   71.99620     -0.11838853     -0.99230863
a   6.1504457      Node    24.88834     +0.87543286     -0.12149332
e   0.6829118      Incl.    4.92936     +0.46861654     -0.02372669
P  15.3
From 354 observations 1989 Nov. 22-2019 Nov. 30, mean residual 0".6.

* Magnitudes Graph

        m1 = 14.5 + 5 log d + 10.0 log r

---------------------------------------------------------------------

The orbital elements are published on M.P.E.C. 2019-X94.
The magnitudes graphs are made with Comet for Windows.

---------------------------------------------------------------------

Copyright(C) Seiichi Yoshida (comet@aerith.net). All rights reserved.